This is the latest recevied weather packets stored in our database for station/object WX9WTF. If no packets are shown the sender has not sent any weather packets the latest 10 day(s).
| Time | Temp. | Humidity | Pressure | Rain* | Wind** | Luminosity | Snow |
|---|---|---|---|---|---|---|---|
| 1777794622 | 5° C | 88% | 1017.3 hPa | 0 mm | - | 0 W/m² | - |
| 1777794317 | 5° C | 87% | 1017.5 hPa | 0 mm | - | 0 W/m² | - |
| 1777794013 | 5° C | 86% | 1017.5 hPa | 0 mm | - | 0 W/m² | - |
| 1777793710 | 5° C | 86% | 1017.5 hPa | 0 mm | - | 0 W/m² | - |
| 1777793409 | 5° C | 85% | 1017.5 hPa | 0 mm | - | 0 W/m² | - |
| 1777793105 | 5° C | 84% | 1017.5 hPa | 0 mm | - | 0 W/m² | - |
| 1777792803 | 5.56° C | 83% | 1017.5 hPa | 0 mm | - | 0 W/m² | - |
| 1777792500 | 5.56° C | 82% | 1017.6 hPa | 0 mm | - | 0 W/m² | - |
| 1777792196 | 5.56° C | 82% | 1017.7 hPa | 0 mm | - | 0 W/m² | - |
| 1777791893 | 6.11° C | 81% | 1017.7 hPa | 0 mm | - | 0 W/m² | - |
| 1777791591 | 6.11° C | 80% | 1017.7 hPa | 0 mm | - | 0 W/m² | - |
| 1777791288 | 6.67° C | 80% | 1017.6 hPa | 0 mm | - | 0 W/m² | - |
| 1777790986 | 6.67° C | 80% | 1017.8 hPa | 0 mm | - | 0 W/m² | - |
| 1777790684 | 6.67° C | 80% | 1017.9 hPa | 0 mm | - | 0 W/m² | - |
| 1777790380 | 6.67° C | 80% | 1018.1 hPa | 0 mm | - | 0 W/m² | - |
| 1777790078 | 6.67° C | 81% | 1018.1 hPa | 0 mm | - | 0 W/m² | - |
| 1777789776 | 6.67° C | 82% | 1018.1 hPa | 0 mm | - | 0 W/m² | - |
| 1777789474 | 6.11° C | 85% | 1018.1 hPa | 0 mm | - | 0 W/m² | - |
| 1777789172 | 6.11° C | 86% | 1018.3 hPa | 0 mm | - | 0 W/m² | - |
| 1777788868 | 5.56° C | 90% | 1018.2 hPa | 0 mm | - | 0 W/m² | - |
| 1777788564 | 5° C | 92% | 1018.2 hPa | 0 mm | - | 0 W/m² | - |
| 1777788259 | 5° C | 93% | 1018.3 hPa | 0 mm | - | 0 W/m² | - |
| 1777787955 | 4.44° C | 94% | 1018.4 hPa | 0 mm | - | 0 W/m² | - |
| 1777787650 | 4.44° C | 95% | 1018.2 hPa | 0 mm | - | 0 W/m² | - |
| 1777787346 | 5° C | 95% | 1018.5 hPa | 0 mm | - | 0 W/m² | - |
* Rain latest hour (hover to see other rain measurements)
** Current wind speed in m/s (hover to see current wind gust speed)